Weather History for PANC - March, 2013

Change the Weather History Date:

Friday, March 29, 2013

  Actual Average Record
Temperature  
Mean Temperature 29 °F 30 °F  
Max Temperature 36 °F 38 °F 48 °F (1995)
Min Temperature 22 °F 23 °F 7 °F (1972)
Degree Days  
Heating Degree Days 36    
Month to date heating degree days 1188  
Since 1 July heating degree days 8633  
Cooling Degree Days 0    
Month to date cooling degree days 0  
Year to date cooling degree days 0  
Moisture  
Dew Point 25 °F    
Average Humidity 83    
Maximum Humidity 88    
Minimum Humidity 78    
Precipitation  
Precipitation T in 0.02 in 0.15 in (2001)
Month to date precipitation 1.38 0.57  
Year to date precipitation 3.83 2.02  
Snow  
Snow T in 0.30 in 3.40 in (2001)
Month to date snowfall 20.6 9.4  
Since 1 July snowfall 76.7 69.7  
Snow Depth 25.00 in    
Sea Level Pressure  
Sea Level Pressure 29.91 in    
Wind  
Wind Speed 6 mph (NNW)    
Max Wind Speed 13 mph    
Max Gust Speed -    
Visibility 10 miles    
Events Snow    
T = Trace of Precipitation, MM = Missing Value Source: NWS Daily Summary

Daily Weather History Graph

Daily Weather History Graph

Search for Another Location

Airport or City:

Trip Planner

Search our weather history database for the weather conditions in past years. The results will help you decide how hot, cold, wet, or windy it might be!

Date:

Astronomy

Mar. 29, 2013 Rise Set
Actual Time 7:31 AM AKDT 8:39 PM AKDT
Civil Twilight 6:47 AM AKDT 9:23 PM AKDT
Nautical Twilight 5:52 AM AKDT 10:19 PM AKDT
Astronomical Twilight 4:48 AM AKDT 11:24 PM AKDT
Moon No Moon Rise 7:55 AM AKDT (3/29)
Length of Visible Light 14h 36m
Length of Day
13h 08m
Waning Gibbous, 92% of the Moon is Illuminated
Mar 29
Waning Gibbous
Apr 2
Last Quarter
Apr 10
New
Apr 18
First Quarter
Apr 25
Full

Hourly Weather History & Observations

Time (AKDT) Temp. Windchill Dew Point Humidity Pressure Visibility Wind Dir Wind Speed Gust Speed Precip Events Conditions
12:53 AM 23.0 °F 14.7 °F 19.0 °F 85% 29.94 in 10.0 mi NNW 6.9 mph - N/A   Overcast
1:53 AM 24.1 °F 13.1 °F 19.9 °F 84% 29.94 in 10.0 mi NNW 11.5 mph - N/A   Overcast
2:53 AM 24.1 °F 15.2 °F 19.9 °F 84% 29.94 in 10.0 mi North 8.1 mph - N/A   Overcast
3:53 AM 24.1 °F - 19.0 °F 81% 29.94 in 10.0 mi Calm Calm - N/A   Overcast
4:53 AM 24.1 °F 19.7 °F 19.0 °F 81% 29.92 in 10.0 mi NE 3.5 mph - N/A   Overcast
5:53 AM 24.1 °F 18.2 °F 19.0 °F 81% 29.91 in 10.0 mi NNE 4.6 mph - N/A   Overcast
6:53 AM 25.0 °F 14.8 °F 19.9 °F 81% 29.90 in 10.0 mi North 10.4 mph - N/A   Overcast
7:53 AM 25.0 °F 13.6 °F 19.9 °F 81% 29.90 in 10.0 mi NNW 12.7 mph - N/A   Overcast
8:53 AM 26.1 °F 17.6 °F 21.0 °F 81% 29.90 in 9.0 mi North 8.1 mph - 0.00 in Snow Light Snow
9:53 AM 27.0 °F 23.0 °F 21.0 °F 78% 29.89 in 10.0 mi NNE 3.5 mph - 0.00 in Snow Light Snow
10:48 AM 28.4 °F 23.3 °F 24.8 °F 86% 29.89 in 10.0 mi North 4.6 mph - 0.00 in Snow Light Snow
10:53 AM 28.0 °F 22.8 °F 24.1 °F 85% 29.90 in 10.0 mi NNE 4.6 mph - 0.00 in Snow Light Snow
11:53 AM 28.9 °F 22.8 °F 24.1 °F 82% 29.89 in 10.0 mi North 5.8 mph - 0.00 in Snow Light Snow
12:53 PM 30.0 °F 25.2 °F 25.0 °F 82% 29.89 in 10.0 mi NNW 4.6 mph - 0.00 in Snow Light Snow
1:53 PM 30.9 °F 26.2 °F 25.0 °F 79% 29.88 in 10.0 mi NNW 4.6 mph - 0.00 in Snow Light Snow
2:53 PM 32.0 °F 27.5 °F 28.0 °F 85% 29.88 in 10.0 mi West 4.6 mph - 0.00 in Snow Light Snow
3:53 PM 34.0 °F 31.0 °F 28.0 °F 79% 29.88 in 10.0 mi WNW 3.5 mph - 0.00 in   Overcast
4:53 PM 35.1 °F 31.0 °F 28.9 °F 78% 29.88 in 10.0 mi NW 4.6 mph - N/A   Overcast
5:53 PM 35.1 °F 32.2 °F 30.0 °F 82% 29.88 in 10.0 mi NW 3.5 mph - N/A   Overcast
6:53 PM 33.1 °F 28.7 °F 30.0 °F 89% 29.88 in 10.0 mi NW 4.6 mph - N/A   Overcast
7:53 PM 33.1 °F 27.7 °F 30.0 °F 89% 29.89 in 10.0 mi WNW 5.8 mph - N/A   Overcast
8:53 PM 33.1 °F 27.7 °F 30.0 °F 89% 29.91 in 10.0 mi NW 5.8 mph - N/A   Overcast
9:53 PM 32.0 °F - 30.9 °F 96% 29.93 in 10.0 mi Calm Calm - N/A   Overcast
10:53 PM 33.1 °F 30.0 °F 30.0 °F 89% 29.94 in 10.0 mi WNW 3.5 mph - N/A   Overcast
11:53 PM 32.0 °F 28.7 °F 30.0 °F 92% 29.96 in 10.0 mi NNW 3.5 mph - N/A   Overcast